Regional Weather Roundup
Issued by NWS

Home | Current Version | Previous Version | Graphics & Text | Print | Product List | Glossary On
Versions: 1 2 3 4 5 6 7 8 9 10 11 12 13 14 15 16 17 18 19 20 21 22 23 24 25 26 27 28 29 30 31 32 33 34 35 36 37 38 39 40 41 42 43 44 45 46 47 48 49 50
000
ASUS45 KPSR 030710
RWRAZ

ARIZONA HOURLY REGIONAL WEATHER ROUNDUP
NATIONAL WEATHER SERVICE PHOENIX AZ
1200 AM MST THU SEP 03 2015

NOTE: FAIR INDICATES FEW OR NO CLOUDS BELOW 12,000 FEET WITH NO
SIGNIFICANT WEATHER AND/OR OBSTRUCTIONS TO VISIBILITY.

AZZ001>003-036-030800-
NORTHWEST ARIZONA

CITY           SKY/WX    TMP DP  RH WIND       PRES   REMARKS
BULLHEAD CITY  CLEAR     86  43  22 S3        29.78S
KINGMAN        CLEAR     73  42  32 S10       29.99S
$$

AZZ004>008-015-016-018-030800-
NORTH CENTRAL ARIZONA

CITY           SKY/WX    TMP DP  RH WIND       PRES   REMARKS
GRAND CANYON   CLEAR     51  45  79 CALM      30.24S
WILLIAMS       PTCLDY    57  39  51 E5        30.29F
PRESCOTT       PTCLDY    67  45  45 S6        30.13F
FLAGSTAFF      PTCLDY    48  39  71 CALM      30.27F
PAYSON         PTCLDY    66  45  45 CALM      30.17R
PAGE           PTCLDY    77  49  37 S13G21    30.02S
$$

AZZ009>014-017-030800-
NORTHEAST ARIZONA

CITY           SKY/WX    TMP DP  RH WIND       PRES   REMARKS
WINSLOW        PTCLDY    61  55  81 SE8       30.15S
SAINT JOHNS    PTCLDY    61  53  75 SE5       30.20R
WINDOW ROCK    MOCLDY    55  49  80 CALM      30.26F
SHOW LOW       PTCLDY    57  50  77 S9        30.25F
$$

AZZ023-030800-
GREATER PHOENIX AREA

CITY           SKY/WX    TMP DP  RH WIND       PRES   REMARKS
PHOENIX        PTCLDY    90  54  29 CALM      29.83S
BUCKEYE        CLEAR     82  48  30 N7        29.84S
LUKE AFB       CLEAR     88  56  34 SW5       29.83S
DEER VALLEY    CLEAR     85  49  28 E3        29.86S
SCOTTSDALE     CLEAR     86  53  32 CALM      29.88R
MESA-GATEWAY   MOCLDY    88  61  40 E7        29.89R
$$

AZZ027-028-030800-
SOUTHWEST MARICOPA COUNTY AND PINAL COUNTY

CITY           SKY/WX    TMP DP  RH WIND       PRES   REMARKS
CASA GRANDE    CLEAR     82  57  42 CALM      29.87R
GILA BEND      FAIR      87  46  23 SE5       29.82R
$$

AZZ503-504-507>509-030800-
SOUTHEAST ARIZONA

CITY           SKY/WX    TMP DP  RH WIND       PRES   REMARKS
TUCSON         MOCLDY    80  58  46 E7        30.01S
DAVIS-MONTHAN  PTCLDY    79  60  50 S8        29.99S
NOGALES        MOCLDY    70  61  73 S5        30.10S
SIERRA VISTA   CLOUDY    68  59  74 VRB2      30.16F
DOUGLAS        CLOUDY    70  59  68 SE10      30.15S
SAFFORD        PTCLDY    72  61  68 SE7       30.04F
$$

AZZ020-021-025-026-031-030800-
SOUTHWEST ARIZONA

CITY           SKY/WX    TMP DP  RH WIND       PRES   REMARKS
YUMA           MOCLDY    85  50  29 S6        29.77S
$$

CAZ031-033-041-043-047-048-061-030800-
SOUTHERN CALIFORNIA

CITY           SKY/WX    TMP DP  RH WIND       PRES   REMARKS
DOWNTOWN L.A.  MOCLDY    67  60  78 CALM      29.94R
L.A. AIRPORT   MOCLDY    68  61  77 SW6       29.94S
SAN DIEGO      PTCLDY    69  58  67 CALM      29.96S
BURBANK        CLOUDY    67  60  78 S5        29.94S
ONTARIO        PTCLDY    66  58  75 W6        29.95S
RIVERSIDE      CLEAR     66  59  78 W3        29.95R
PALM SPRINGS   MOCLDY    86  44  23 NW14      29.79S
EL CENTRO NAS  MOCLDY    89  44  20 W12       29.76S
IMPERIAL       MOCLDY    89  45  21 E12       29.75R
BLYTHE         MOCLDY    89  54  30 S9        29.77S
NEEDLES        CLEAR     92  41  17 SW9       29.79S
$$

NVZ020-UTZ003-030800-
SOUTHERN NEVADA-UTAH

CITY           SKY/WX    TMP DP  RH WIND       PRES   REMARKS
LAS VEGAS      PTCLDY    87  43  21 S9        29.81S
SALT LAKE CITY MOCLDY    82  36  19 SE23G31   29.86S
$$

NMZ009-TXZ055-030800-
NEW MEXICO-WEST TEXAS

CITY           SKY/WX    TMP DP  RH WIND       PRES   REMARKS
ALBUQUERQUE    MOCLDY    70  49  47 SE5       30.20F
EL PASO        CLOUDY    81  51  35 N13       30.07S
$$


........................KEY........................
SKY/WX - SKY CONDITION/WEATHER
TMP    - TEMPERATURE IN FAHRENHEIT
DP     - DEW POINT IN FAHRENHEIT
RH     - RELATIVE HUMIDITY IN PERCENT
WIND   - DIRECTION AND SPEED IN MILES PER HOUR (MPH)
VRB    - VARIABLE WIND DIRECTION
PRES   - MEAN SEA LEVEL PRESSURE IN INCHES OF MERCURY
         F - FALLING PRESSURE   R - RISING PRESSURE
         S - STEADY PRESSURE
VSB    - VISIBILITY IN MILES
HX     - HEAT INDEX IN FAHRENHEIT
WCI    - WIND CHILL INDEX IN FAHRENHEIT
TC     - TEMPERATURE IN CELSIUS WHICH IS ALSO KNOWN AS
         TEMPERATURE IN CENTIGRADE
AFB    - AIR FORCE BASE
         LUKE AFB IS LUKE AIR FORCE BASE
         DAVIS-MONTHAN IS DAVIS-MONTHAN AIR FORCE BASE
NAS    - NAVAL AIR STATION
         EL CENTRO NAS IS EL CENTRO NAVAL AIR STATION
N/A    - NOT AVAILABLE




USA.gov is the U.S. government's official web portal to all federal, state and local government web resources and services.